Date String (YYYY-MM-DD hh:mm:ss) UTC,Instrument flags,Ambient pressure (hPa),Sample flow (lpm),Bypass flow (lpm),Sample temperature (°C),Ambient temperature (°C),ASC tube jacket temperature (°C),LED temperature (°C),Box temperature (°C),Sample RH (%),Span deviation,Mass concentration (μg/m³),Mass concentration (μg/m³),Mass concentration (μg/m³)
DateTimeUTC,F1_M11,P_M11,Q1_M11,Q2_M11,T1_M11,T2_M11,T3_M11,T4_M11,T5_M11,U1_M11,ZSPAN_M11,X0_M11,X2_M11,X1_M11
2022-06-07 01:00:00,,0822.7,4.99,0.00,29.5,28.4,00.0,38.3,31.4,26.4,0000.0,0010.95,0003.70,0001.84
2022-06-07 01:01:00,,0822.7,5.01,0.00,29.5,28.4,00.0,38.3,31.4,26.0,0000.0,0011.35,0003.66,0001.83
2022-06-07 01:02:00,,0822.9,5.00,0.00,29.5,28.5,00.0,38.3,31.5,25.9,0000.0,0010.74,0003.60,0001.81
2022-06-07 01:03:00,,0823.1,5.00,0.00,29.6,28.6,00.0,38.4,31.5,26.2,0000.0,0010.94,0003.55,0001.78
2022-06-07 01:04:00,,0823.0,5.00,0.00,29.6,28.6,00.0,38.4,31.5,26.6,0000.0,0010.76,0003.51,0001.75
2022-06-07 01:05:00,,0822.9,5.01,0.00,29.6,28.7,00.0,38.4,31.6,26.0,0000.0,0010.60,0003.53,0001.72
2022-06-07 01:06:00,,0823.0,5.00,0.00,29.6,28.7,00.0,38.4,31.6,25.7,0000.0,0011.04,0003.54,0001.70
2022-06-07 01:07:00,,0823.0,5.00,0.00,29.7,28.8,00.0,38.4,31.6,25.6,0000.0,0011.21,0003.50,0001.70
2022-06-07 01:08:00,,0823.0,5.00,0.00,29.7,28.8,00.0,38.5,31.7,25.1,0000.0,0011.20,0003.49,0001.71
2022-06-07 01:09:00,,0822.8,5.00,0.00,29.7,28.9,00.0,38.5,31.7,25.1,0000.0,0011.65,0003.48,0001.69
2022-06-07 01:10:00,,0822.7,4.99,0.00,29.7,28.9,00.0,38.5,31.7,24.6,0000.0,0011.42,0003.49,0001.67
2022-06-07 01:11:00,,0822.8,5.02,0.00,29.7,28.2,00.0,38.4,31.5,25.2,0000.0,0011.53,0003.49,0001.67
2022-06-07 01:12:00,,0822.8,4.99,0.00,29.6,27.5,00.0,38.4,31.3,25.3,0000.0,0011.47,0003.47,0001.64
2022-06-07 01:13:00,,0822.7,5.01,0.00,29.6,27.4,00.0,38.4,31.2,24.4,0000.0,0011.06,0003.44,0001.61
2022-06-07 01:14:00,,0822.6,4.98,0.00,29.5,27.4,00.0,38.4,31.2,24.3,0000.0,0010.51,0003.42,0001.60
2022-06-07 01:15:00,,0822.6,5.01,0.00,29.4,27.5,00.0,38.3,31.2,24.2,0000.0,0010.50,0003.41,0001.59
2022-06-07 01:16:00,,0822.6,5.00,0.00,29.4,27.6,00.0,38.3,31.2,24.6,0000.0,0010.59,0003.34,0001.58
2022-06-07 01:17:00,,0822.7,4.99,0.00,29.4,27.8,00.0,38.3,31.3,24.9,0000.0,0010.18,0003.26,0001.57
2022-06-07 01:18:00,,0822.6,4.99,0.00,29.4,27.9,00.0,38.3,31.3,24.3,0000.0,0009.16,0003.21,0001.54
2022-06-07 01:19:00,,0822.7,5.00,0.00,29.4,28.0,00.0,38.3,31.3,24.2,0000.0,0008.93,0003.15,0001.48
2022-06-07 01:20:00,,0822.7,5.01,0.00,29.5,28.2,00.0,38.3,31.4,24.3,0000.0,0008.32,0003.10,0001.44
2022-06-07 01:21:00,,0822.7,5.00,0.00,29.5,28.3,00.0,38.3,31.4,24.1,0000.0,0007.96,0002.98,0001.42
2022-06-07 01:22:00,,0822.6,5.00,0.00,29.5,28.4,00.0,38.3,31.4,24.1,0000.0,0007.69,0002.83,0001.35
2022-06-07 01:23:00,,0822.6,4.99,0.00,29.5,28.5,00.0,38.4,31.4,24.1,0000.0,0007.21,0002.79,0001.33
2022-06-07 01:24:00,,0822.7,4.98,0.00,29.5,28.5,00.0,38.4,31.5,24.3,0000.0,0007.20,0002.72,0001.30
2022-06-07 01:25:00,,0822.6,5.01,0.00,29.6,28.6,00.0,38.4,31.5,24.0,0000.0,0007.02,0002.67,0001.27
2022-06-07 01:26:00,,0822.6,5.02,0.00,29.6,28.6,00.0,38.4,31.5,23.8,0000.0,0006.76,0002.57,0001.23
2022-06-07 01:27:00,,0822.6,4.99,0.00,29.6,28.7,00.0,38.4,31.6,23.2,0000.0,0006.45,0002.57,0001.20
2022-06-07 01:28:00,,0822.7,5.00,0.00,29.6,28.7,00.0,38.4,31.6,23.1,0000.0,0006.16,0002.53,0001.16
2022-06-07 01:29:00,,0822.7,5.01,0.00,29.7,28.8,00.0,38.4,31.6,22.9,0000.0,0006.22,0002.56,0001.15
2022-06-07 01:30:00,,0822.7,4.99,0.00,29.7,28.8,00.0,38.5,31.7,22.7,0000.0,0006.97,0002.56,0001.14
2022-06-07 01:31:00,,0822.7,4.99,0.00,29.7,28.9,00.0,38.5,31.7,22.6,0000.0,0006.83,0002.50,0001.13
2022-06-07 01:32:00,,0822.8,5.01,0.00,29.7,28.9,00.0,38.5,31.7,22.8,0000.0,0006.73,0002.52,0001.11
2022-06-07 01:33:00,,0822.7,4.99,0.00,29.7,28.9,00.0,38.5,31.7,22.8,0000.0,0007.10,0002.54,0001.11
2022-06-07 01:34:00,,0822.7,4.99,0.00,29.8,29.0,00.0,38.5,31.7,22.5,0000.0,0007.05,0002.55,0001.09
2022-06-07 01:35:00,,0822.8,5.00,0.00,29.8,29.0,00.0,38.6,31.8,22.2,0000.0,0007.06,0002.60,0001.11
2022-06-07 01:36:00,,0823.0,5.00,0.00,29.8,29.0,00.0,38.6,31.8,21.9,0000.0,0007.09,0002.58,0001.11
2022-06-07 01:37:00,,0823.1,4.99,0.00,29.8,29.0,00.0,38.6,31.8,21.9,0000.0,0007.39,0002.62,0001.10
2022-06-07 01:38:00,,0823.0,5.02,0.00,29.9,29.1,00.0,38.6,31.8,23.4,0000.0,0007.29,0002.56,0001.10
2022-06-07 01:39:00,,0823.0,4.99,0.00,29.9,28.9,00.0,38.6,31.8,23.5,0000.0,0007.33,0002.58,0001.12
2022-06-07 01:40:00,,0822.9,5.01,0.00,29.8,28.1,00.0,38.6,31.6,23.8,0000.0,0007.31,0002.59,0001.13
2022-06-07 01:41:00,,0822.9,4.98,0.00,29.8,27.5,00.0,38.5,31.4,23.6,0000.0,0006.83,0002.69,0001.13
2022-06-07 01:42:00,,0822.8,5.01,0.00,29.7,27.4,00.0,38.5,31.3,23.0,0000.0,0006.90,0002.75,0001.14
2022-06-07 01:43:00,,0822.7,4.99,0.00,29.6,27.5,00.0,38.5,31.3,23.6,0000.0,0006.95,0002.73,0001.17
2022-06-07 01:44:00,,0822.7,5.01,0.00,29.6,27.6,00.0,38.5,31.3,23.0,0000.0,0006.93,0002.74,0001.19
2022-06-07 01:45:00,,0822.6,4.99,0.00,29.5,27.7,00.0,38.5,31.3,22.2,0000.0,0007.51,0002.82,0001.21
2022-06-07 01:46:00,,0822.6,5.00,0.00,29.5,27.8,00.0,38.4,31.3,22.9,0000.0,0007.68,0002.94,0001.22
2022-06-07 01:47:00,,0822.7,5.01,0.00,29.5,28.0,00.0,38.4,31.4,22.5,0000.0,0007.73,0003.06,0001.22
2022-06-07 01:48:00,,0822.7,5.00,0.00,29.5,28.1,00.0,38.4,31.4,22.6,0000.0,0007.70,0003.00,0001.22
2022-06-07 01:49:00,,0822.8,5.00,0.00,29.5,28.2,00.0,38.4,31.4,22.6,0000.0,0007.79,0002.99,0001.23
2022-06-07 01:50:00,,0823.0,5.00,0.00,29.5,28.3,00.0,38.4,31.4,22.7,0000.0,0007.72,0002.94,0001.22
2022-06-07 01:51:00,,0823.0,4.99,0.00,29.6,28.4,00.0,38.4,31.5,22.5,0000.0,0007.80,0002.96,0001.20
2022-06-07 01:52:00,,0822.9,5.00,0.00,29.6,28.5,00.0,38.4,31.5,22.2,0000.0,0007.80,0002.84,0001.19
2022-06-07 01:53:00,,0823.0,5.00,0.00,29.6,28.5,00.0,38.5,31.5,22.4,0000.0,0007.99,0002.84,0001.18
2022-06-07 01:54:00,,0823.0,4.99,0.00,29.6,28.6,00.0,38.5,31.5,22.4,0000.0,0008.04,0002.89,0001.17
2022-06-07 01:55:00,,0823.0,4.99,0.00,29.6,28.7,00.0,38.5,31.6,22.6,0000.0,0007.94,0002.93,0001.16
2022-06-07 01:56:00,,0822.9,4.99,0.00,29.7,28.7,00.0,38.5,31.6,22.6,0000.0,0007.48,0002.88,0001.16
2022-06-07 01:57:00,,0822.9,4.99,0.00,29.7,28.8,00.0,38.5,31.7,22.5,0000.0,0007.96,0002.76,0001.16
2022-06-07 01:58:00,,0822.9,5.00,0.00,29.7,28.8,00.0,38.5,31.7,22.6,0000.0,0008.01,0002.64,0001.16
2022-06-07 01:59:00,,0822.9,5.01,0.00,29.8,28.9,00.0,38.5,31.7,22.5,0000.0,0008.18,0002.70,0001.18
